• In Austria
  • List of Countries
  • For 7 days
  • Water Temperature
  • Satellite Maps
  • Weather Map
  • News
  • Weather Widgets
  • user-avatar
    Login

    Hourly Weather Silistra

    Today, 15 August, Wednesday

    Time Temperature Precipitation Wind Pressure Humidity
    00:00 +20°C° 0 mm 2 mps 756 mmHg 69%
    01:00 +20°C° 0 mm 2 mps 756 mmHg 72%
    02:00 +20°C° 0 mm 2 mps 755 mmHg 80%
    03:00 +20°C° 0 mm 1 mps 755 mmHg 80%
    04:00 +20°C° 0 mm 1 mps 755 mmHg 81%
    05:00 +20°C° 0 mm 1 mps 755 mmHg 82%
    06:00 +22°C° 0 mm 1 mps 755 mmHg 74%
    07:00 +24°C° 0 mm 1 mps 756 mmHg 66%
    08:00 +26°C° 0 mm 2 mps 756 mmHg 56%
    09:00 +28°C° 0 mm 2 mps 756 mmHg 48%
    10:00 +30°C° 0 mm 3 mps 755 mmHg 40%
    11:00 +33°C° 0 mm 3 mps 755 mmHg 32%
    12:00 +34°C° 0 mm 4 mps 755 mmHg 30%
    13:00 +35°C° 0 mm 4 mps 755 mmHg 28%
    14:00 +36°C° 0 mm 4 mps 755 mmHg 25%
    15:00 +36°C° 0 mm 4 mps 755 mmHg 26%
    16:00 +35°C° 0 mm 4 mps 755 mmHg 27%
    17:00 +35°C° 0 mm 4 mps 754 mmHg 28%
    18:00 +32°C° 0 mm 4 mps 755 mmHg 34%
    19:00 +29°C° 0 mm 3 mps 755 mmHg 40%
    20:00 +26°C° 0 mm 3 mps 755 mmHg 46%
    21:00 +25°C° 0 mm 2 mps 755 mmHg 50%
    22:00 +24°C° 0 mm 2 mps 755 mmHg 55%
    23:00 +23°C° 0 mm 1 mps 755 mmHg 59%

    Tomorrow, 16 August, Thursday

    Time Temperature Precipitation Wind Pressure Humidity
    00:00 +23°C° 0 mm 1 mps 755 mmHg 60%
    01:00 +22°C° 0 mm 1 mps 755 mmHg 61%
    02:00 +21°C° 0 mm 1 mps 755 mmHg 63%
    03:00 +21°C° 0 mm 1 mps 755 mmHg 63%
    04:00 +21°C° 0 mm 1 mps 754 mmHg 63%
    05:00 +20°C° 0 mm 2 mps 754 mmHg 63%
    06:00 +23°C° 0 mm 2 mps 755 mmHg 57%
    07:00 +25°C° 0 mm 3 mps 755 mmHg 51%
    08:00 +27°C° 0 mm 4 mps 755 mmHg 45%
    09:00 +29°C° 0 mm 4 mps 755 mmHg 40%
    10:00 +33°C° 0 mm 4 mps 755 mmHg 34%
    11:00 +35°C° 0 mm 5 mps 755 mmHg 29%
    12:00 +36°C° 0 mm 5 mps 755 mmHg 27%
    13:00 +37°C° 0 mm 5 mps 754 mmHg 25%
    14:00 +37°C° 0 mm 5 mps 754 mmHg 22%
    15:00 +37°C° 0 mm 4 mps 754 mmHg 24%
    16:00 +36°C° 0 mm 4 mps 754 mmHg 25%
    17:00 +36°C° 0 mm 4 mps 754 mmHg 26%
    18:00 +33°C° 0 mm 3 mps 754 mmHg 33%
    19:00 +30°C° 0 mm 3 mps 754 mmHg 39%
    20:00 +27°C° 0 mm 3 mps 754 mmHg 46%
    21:00 +26°C° 0 mm 2 mps 754 mmHg 49%
    22:00 +25°C° 0 mm 2 mps 754 mmHg 53%
    23:00 +24°C° 0 mm 1 mps 754 mmHg 57%

    Day after tomorrow, 17 August, Friday

    Time Temperature Precipitation Wind Pressure Humidity
    00:00 +24°C° 0 mm 1 mps 754 mmHg 57%
    01:00 +24°C° 0 mm 1 mps 754 mmHg 58%
    02:00 +23°C° 0 mm 2 mps 754 mmHg 58%
    03:00 +23°C° 0 mm 2 mps 754 mmHg 61%
    04:00 +21°C° 0 mm 2 mps 754 mmHg 63%
    05:00 +21°C° 0 mm 2 mps 754 mmHg 66%
    06:00 +24°C° 0 mm 3 mps 754 mmHg 61%
    07:00 +25°C° 0 mm 3 mps 755 mmHg 56%
    08:00 +27°C° 0 mm 4 mps 755 mmHg 52%
    09:00 +29°C° 0 mm 4 mps 755 mmHg 44%
    10:00 +33°C° 0 mm 4 mps 755 mmHg 37%
    11:00 +35°C° 0 mm 5 mps 755 mmHg 30%
    12:00 +36°C° 0 mm 5 mps 755 mmHg 28%
    13:00 +37°C° 0 mm 5 mps 754 mmHg 26%
    14:00 +37°C° 0 mm 5 mps 754 mmHg 24%
    15:00 +37°C° 0 mm 5 mps 754 mmHg 26%
    16:00 +36°C° 0 mm 4 mps 754 mmHg 27%
    17:00 +35°C° 0 mm 4 mps 754 mmHg 29%
    18:00 +33°C° 0 mm 4 mps 754 mmHg 34%
    19:00 +30°C° 0 mm 3 mps 754 mmHg 40%
    20:00 +28°C° 0 mm 3 mps 755 mmHg 46%
    21:00 +27°C° 0 mm 2 mps 755 mmHg 49%
    22:00 +26°C° 0 mm 2 mps 755 mmHg 53%
    23:00 +25°C° 0 mm 1 mps 755 mmHg 56%

    18 August, Saturday

    Time Temperature Precipitation Wind Pressure Humidity
    00:00 +24°C° 0 mm 1 mps 755 mmHg 56%
    01:00 +24°C° 0 mm 1 mps 755 mmHg 56%
    02:00 +23°C° 0 mm 1 mps 755 mmHg 56%
    03:00 +23°C° 0 mm 2 mps 755 mmHg 59%
    04:00 +21°C° 0 mm 2 mps 755 mmHg 62%
    05:00 +21°C° 0 mm 2 mps 755 mmHg 64%
    06:00 +24°C° 0 mm 2 mps 755 mmHg 59%
    07:00 +26°C° 0 mm 3 mps 756 mmHg 54%
    08:00 +28°C° 0 mm 3 mps 756 mmHg 49%
    09:00 +30°C° 0 mm 4 mps 756 mmHg 41%
    10:00 +34°C° 0 mm 4 mps 756 mmHg 33%
    11:00 +37°C° 0 mm 4 mps 756 mmHg 25%
    12:00 +37°C° 0 mm 5 mps 755 mmHg 24%
    13:00 +37°C° 0 mm 5 mps 755 mmHg 22%
    14:00 +39°C° 0 mm 5 mps 755 mmHg 21%
    15:00 +37°C° 0 mm 5 mps 755 mmHg 22%
    16:00 +37°C° 0 mm 5 mps 755 mmHg 23%
    17:00 +36°C° 0 mm 5 mps 755 mmHg 24%
    18:00 +34°C° 0 mm 4 mps 755 mmHg 29%
    19:00 +30°C° 0 mm 4 mps 755 mmHg 34%
    20:00 +28°C° 0 mm 3 mps 756 mmHg 39%
    21:00 +27°C° 0 mm 3 mps 756 mmHg 42%
    22:00 +26°C° 0 mm 2 mps 756 mmHg 46%
    23:00 +25°C° 0 mm 2 mps 756 mmHg 49%

    19 August, Sunday

    Time Temperature Precipitation Wind Pressure Humidity
    00:00 +24°C° 0 mm 2 mps 756 mmHg 49%
    01:00 +24°C° 0 mm 1 mps 756 mmHg 50%
    02:00 +24°C° 0 mm 1 mps 756 mmHg 50%
    03:00 +23°C° 0 mm 1 mps 756 mmHg 50%
    04:00 +23°C° 0 mm 2 mps 756 mmHg 50%
    05:00 +21°C° 0 mm 2 mps 756 mmHg 49%
    06:00 +24°C° 0 mm 2 mps 757 mmHg 45%
    07:00 +26°C° 0 mm 3 mps 757 mmHg 41%
    08:00 +28°C° 0 mm 3 mps 757 mmHg 37%
    09:00 +31°C° 0 mm 3 mps 757 mmHg 32%
    10:00 +34°C° 0 mm 3 mps 757 mmHg 27%
    11:00 +36°C° 0 mm 3 mps 757 mmHg 22%
    12:00 +37°C° 0 mm 3 mps 757 mmHg 21%
    13:00 +38°C° 0 mm 4 mps 756 mmHg 20%
    14:00 +38°C° 0 mm 4 mps 756 mmHg 19%
    15:00 +38°C° 0 mm 4 mps 756 mmHg 20%
    16:00 +37°C° 0 mm 4 mps 756 mmHg 22%
    17:00 +36°C° 0 mm 4 mps 756 mmHg 23%
    18:00 +34°C° 0 mm 4 mps 756 mmHg 29%
    19:00 +30°C° 0 mm 3 mps 756 mmHg 35%
    20:00 +28°C° 0 mm 3 mps 757 mmHg 41%
    21:00 +27°C° 0 mm 3 mps 757 mmHg 45%
    22:00 +26°C° 0 mm 2 mps 757 mmHg 49%
    23:00 +25°C° 0 mm 1 mps 757 mmHg 54%

    20 August, Monday

    Time Temperature Precipitation Wind Pressure Humidity
    00:00 +24°C° 0 mm 1 mps 757 mmHg 56%
    01:00 +24°C° 0 mm 1 mps 757 mmHg 58%
    02:00 +24°C° 0 mm 1 mps 757 mmHg 60%
    03:00 +23°C° 0 mm 1 mps 757 mmHg 63%
    04:00 +23°C° 0 mm 2 mps 757 mmHg 66%
    05:00 +23°C° 0 mm 2 mps 757 mmHg 68%
    06:00 +24°C° 0 mm 2 mps 757 mmHg 65%
    07:00 +26°C° 0 mm 3 mps 758 mmHg 62%
    08:00 +28°C° 0 mm 4 mps 758 mmHg 59%
    09:00 +30°C° 0 mm 4 mps 758 mmHg 52%
    10:00 +32°C° 0 mm 4 mps 758 mmHg 45%
    11:00 +34°C° 0 mm 4 mps 758 mmHg 38%
    12:00 +35°C° 0 mm 4 mps 758 mmHg 36%
    13:00 +35°C° 0 mm 4 mps 758 mmHg 34%
    14:00 +36°C° 0 mm 4 mps 757 mmHg 32%
    15:00 +35°C° 0 mm 3 mps 757 mmHg 33%
    16:00 +35°C° 0 mm 3 mps 757 mmHg 34%
    17:00 +35°C° 0 mm 3 mps 757 mmHg 35%
    18:00 +33°C° 0.3 mm 3 mps 757 mmHg 39%
    19:00 +30°C° 0.3 mm 2 mps 757 mmHg 43%
    20:00 +29°C° 0.3 mm 2 mps 758 mmHg 48%
    21:00 +28°C° 0.1 mm 2 mps 758 mmHg 52%
    22:00 +27°C° 0.1 mm 2 mps 758 mmHg 56%
    23:00 +25°C° 0.1 mm 2 mps 758 mmHg 61%
    Show more